Theta_e
318 317 316 317 319 320 320 321 322 322 322 323 324 325 326 326 327 326 326 326 326 326 327 327 327 327 327 326 325 325 324 324 324 323 322 320 319 319 317 316 314 313 312 310 308 305 301 298 294 292 291 291 290 290 290 289 289 289 288 288 288 288 288 291 293 292 291 291 290 289 289 288 287 287 286 286 286 285 285 285 285 285 285 285 284
313 314 314 315 316 317 318 319 320 321 321 322 323 324 325 325 326 326 326 326 326 326 327 327 327 327 326 325 324 324 324 324 324 322 320 319 318 317 315 314 312 311 309 308 305 302 298 294 292 291 291 290 290 290 289 289 289 288 288 288 288 287 287 288 290 291 291 290 289 289 288 287 287 286 286 286 285 285 285 285 285 285 285 284 284
311 311 311 311 312 313 315 317 318 319 320 321 322 322 323 324 325 325 325 325 325 326 326 327 327 326 325 324 324 324 323 323 322 321 319 318 317 316 314 312 310 308 307 306 302 297 294 291 291 291 290 290 289 289 289 289 288 288 287 287 287 287 287 286 287 289 290 290 288 288 288 287 286 286 286 286 285 285 285 285 285 285 285 284 284
312 312 311 311 311 311 311 313 314 316 317 319 320 321 322 323 323 324 324 324 325 325 325 326 325 325 324 323 323 323 322 321 321 320 319 318 317 315 313 310 308 307 306 302 297 293 292 291 291 290 290 289 289 289 289 288 288 287 287 287 287 287 287 286 286 286 288 288 288 288 287 287 286 286 286 285 284 284 285 284 284 285 284 284 284
311 311 311 311 311 311 311 311 312 313 314 316 318 319 320 321 322 323 323 323 324 324 324 324 323 323 322 322 322 322 322 321 320 320 319 317 316 314 312 309 306 305 302 297 292 291 291 291 290 290 290 289 289 289 288 288 287 287 287 287 287 287 286 286 286 285 286 287 288 287 287 287 286 286 286 285 284 284 284 284 284 284 284 284 284
309 308 308 309 309 310 310 310 310 310 311 312 315 316 318 320 321 321 321 322 323 323 323 322 322 322 322 321 320 321 322 320 318 319 318 317 315 312 308 305 303 300 297 293 291 291 291 290 290 290 289 289 289 288 288 288 287 287 287 287 287 286 286 286 286 285 286 287 287 287 287 287 286 286 285 284 284 284 284 283 284 284 283 284 283
308 307 307 307 307 308 308 309 309 309 310 311 313 314 316 318 319 319 320 320 320 321 321 321 320 320 320 319 318 317 318 318 317 317 317 316 314 309 305 302 299 295 293 291 291 290 290 290 290 289 289 289 289 288 288 287 287 287 287 287 287 286 286 286 286 286 286 287 287 287 287 286 286 286 285 284 283 284 283 282 283 283 283 282 283
308 307 307 306 307 307 308 309 310 311 312 312 313 314 315 317 318 318 318 318 318 319 319 319 319 318 317 316 316 315 314 316 317 317 316 315 311 306 302 299 295 292 291 290 290 290 289 289 289 289 289 289 288 288 288 287 287 287 287 287 286 286 286 286 286 286 286 287 287 287 286 286 286 285 284 283 283 283 283 282 281 282 281 281 282
308 308 307 307 307 308 309 310 312 312 313 314 315 315 316 316 317 317 317 317 317 317 317 317 316 315 313 312 312 313 313 314 316 316 315 313 309 303 300 297 293 291 290 290 289 289 289 289 289 288 288 288 288 288 287 287 287 287 287 287 286 286 285 286 286 286 286 287 286 286 286 285 285 284 283 283 283 282 282 281 281 281 280 281 282
307 308 307 307 308 309 310 311 312 313 314 315 315 316 316 316 317 317 316 316 315 314 314 313 313 312 311 310 310 311 312 313 315 316 315 313 308 303 298 295 292 290 290 289 289 289 288 288 288 288 288 288 287 287 287 287 286 286 287 286 286 286 285 285 285 286 286 286 286 285 285 285 284 283 283 283 282 282 281 280 280 280 280 280 282
307 307 308 308 308 309 311 312 313 314 314 314 314 315 315 315 315 314 314 313 313 313 312 311 311 310 310 309 309 310 312 315 315 314 312 310 307 301 296 292 291 290 289 289 289 288 288 288 288 288 288 287 287 287 286 286 286 286 286 286 286 286 285 284 284 284 284 285 285 284 284 284 284 283 282 282 281 281 280 279 279 279 279 279 280
306 306 307 308 308 309 310 312 312 313 313 313 313 312 313 313 312 312 311 311 311 311 311 310 309 309 308 309 309 310 312 314 314 312 309 306 303 298 293 291 290 289 289 289 289 288 288 288 288 288 287 287 286 286 286 286 286 286 286 285 285 285 285 284 284 283 283 283 283 283 283 283 283 282 282 281 280 280 279 279 279 279 279 279 278
306 306 306 307 308 309 310 311 311 312 312 312 312 311 311 310 311 310 309 309 309 309 308 308 307 307 307 307 307 308 310 312 312 310 306 302 298 294 292 291 290 289 289 288 288 288 288 288 288 287 287 286 286 286 286 285 285 285 285 285 285 285 284 284 284 283 283 282 282 282 282 282 282 282 281 281 280 279 278 278 279 278 278 278 278
305 305 305 307 308 309 309 309 310 310 310 310 310 309 309 308 308 308 308 307 307 307 306 306 305 306 306 306 307 308 309 311 311 308 303 299 294 291 290 290 290 289 289 288 288 288 288 288 288 287 286 286 286 285 285 285 285 285 285 285 285 284 284 283 283 283 282 281 281 281 282 282 281 281 281 280 279 278 278 278 278 277 277 277 277
304 304 304 305 307 308 309 309 309 309 309 309 308 307 307 307 306 306 306 306 305 305 305 304 304 305 304 304 305 306 308 309 309 306 301 296 292 290 289 289 289 288 288 288 288 288 288 288 287 287 287 286 286 285 285 285 285 285 284 284 284 284 283 283 282 282 282 281 281 281 281 281 281 281 280 279 279 278 278 277 277 277 277 277 277
303 303 303 304 305 306 307 308 308 308 308 308 307 307 306 306 305 305 304 304 303 303 303 303 304 304 304 304 304 304 306 307 305 302 298 293 290 289 289 288 288 288 288 288 288 287 287 287 287 287 287 286 285 285 285 285 285 284 284 284 283 283 283 282 282 282 281 281 281 281 281 281 281 280 280 279 278 277 277 277 277 277 277 276 277
302 303 302 303 304 305 306 307 307 307 307 307 307 307 306 306 305 305 304 304 303 303 303 303 304 304 304 305 304 304 304 305 303 299 295 291 289 288 288 288 288 287 287 287 287 286 286 286 286 286 286 286 286 285 285 284 284 284 284 283 283 282 282 282 282 282 281 281 282 281 281 281 281 280 280 280 279 277 277 277 277 277 276 276 277
301 302 302 302 303 304 305 305 306 306 305 305 306 307 306 306 306 305 304 304 304 304 304 304 304 305 305 305 304 303 303 303 301 297 293 290 288 288 288 287 287 287 287 286 286 286 286 286 286 286 286 286 285 285 284 284 284 284 283 283 282 282 283 282 282 281 281 281 281 281 281 281 281 281 280 280 279 277 277 277 277 276 276 276 276
300 301 301 301 301 303 304 304 305 305 305 305 305 305 305 304 304 304 303 303 303 303 302 302 302 302 302 302 301 299 297 297 296 293 290 288 288 287 287 287 287 286 286 286 285 285 286 286 285 286 285 285 285 284 284 284 284 284 283 282 282 283 283 282 282 281 281 281 281 280 281 281 281 280 280 279 278 278 277 277 276 275 275 275 276
301 300 300 300 300 301 302 302 303 304 305 305 305 304 304 303 302 302 302 300 300 300 300 299 299 299 299 298 296 294 293 293 293 290 288 288 287 287 287 287 287 286 286 285 285 285 285 285 285 285 285 285 285 284 284 284 284 283 282 282 283 283 282 282 282 281 281 280 280 280 281 280 280 280 280 279 278 278 278 277 276 275 275 275 275
300 300 299 299 299 299 299 300 301 303 304 304 304 304 304 303 302 301 300 299 298 298 297 296 296 295 295 294 293 291 291 291 290 289 288 287 287 287 287 287 287 287 286 285 285 285 285 285 285 285 285 285 284 284 284 284 284 282 282 282 282 282 282 282 282 281 280 281 280 280 280 280 280 280 279 278 278 277 278 278 277 275 275 274 274
300 299 299 298 298 298 298 298 299 301 302 303 302 302 302 302 301 300 299 298 297 296 294 293 292 291 291 291 290 289 289 289 288 288 287 287 286 286 286 286 287 287 286 286 285 286 286 286 286 285 285 284 284 283 283 284 283 282 281 281 281 281 281 282 281 280 280 280 280 280 280 280 280 280 279 278 277 277 278 278 277 276 275 274 274
300 299 299 298 298 298 297 297 297 299 301 301 301 300 300 299 299 297 296 295 294 293 292 290 289 289 288 288 288 288 288 288 287 287 287 286 286 286 286 286 286 286 286 286 286 286 286 286 286 285 285 284 283 283 283 283 282 281 281 281 280 281 281 281 280 280 280 280 280 280 280 280 280 279 279 278 277 277 277 277 277 276 275 275 274
300 299 299 299 298 297 297 296 296 297 298 299 299 298 297 297 296 295 294 293 291 290 289 288 288 287 287 287 287 287 287 287 287 287 286 286 285 285 285 285 285 285 285 286 286 286 286 286 286 285 285 284 283 283 283 283 282 281 281 280 279 280 280 280 279 279 279 279 279 279 279 279 279 279 278 278 277 278 277 277 276 275 275 275 274
299 298 298 297 297 297 296 296 295 295 296 296 296 296 295 295 294 293 292 291 289 288 287 287 287 287 287 287 287 287 287 287 287 287 286 286 285 285 284 284 284 285 285 285 285 285 285 285 286 285 284 284 283 283 282 282 281 280 280 279 279 279 279 279 279 278 278 278 279 279 279 278 278 278 278 278 278 277 277 276 275 274 274 274 274
297 297 296 296 296 296 295 295 294 294 294 294 294 294 294 294 293 292 290 289 288 287 287 287 286 286 286 286 286 286 286 286 287 287 287 286 285 284 284 284 284 284 284 285 285 285 285 285 285 284 284 283 283 282 282 281 280 280 279 278 278 278 278 278 278 278 278 278 278 278 278 278 278 278 278 278 277 277 275 274 274 274 274 274 274
296 296 296 295 295 295 294 294 293 293 293 292 291 291 291 292 291 290 289 288 288 287 287 287 286 286 286 286 286 286 286 286 286 286 286 286 285 285 284 284 283 283 284 284 284 284 283 283 283 283 283 282 282 281 281 280 279 279 278 278 278 278 278 278 278 278 277 277 278 278 278 277 277 277 277 276 276 275 274 273 273 273 274 273 273
296 295 295 294 294 294 293 292 292 291 291 291 290 289 289 290 290 290 290 289 289 288 287 287 287 287 286 286 286 286 286 285 286 286 286 286 286 285 285 284 283 283 283 283 283 282 282 282 282 282 282 281 281 280 279 279 278 278 278 278 278 277 277 277 277 277 277 277 277 277 277 277 277 277 276 275 275 274 273 273 273 273 273 272 272
295 294 294 293 293 292 291 291 291 289 289 290 289 288 288 288 289 289 289 289 289 289 288 288 287 287 287 286 286 286 286 286 286 286 286 286 286 286 285 284 284 283 283 283 282 281 281 281 281 281 280 280 279 278 278 277 277 277 277 277 277 276 276 276 277 277 277 277 277 277 277 277 277 276 276 275 274 273 272 272 272 273 273 272 271
294 294 293 292 292 291 290 289 289 288 288 288 288 288 288 288 288 288 288 288 288 288 288 287 287 287 286 286 286 286 286 286 287 286 285 285 285 285 285 284 284 283 283 282 281 281 281 281 281 280 280 279 279 278 277 276 276 276 276 276 275 275 276 277 277 277 277 277 277 277 277 276 276 275 274 274 273 273 272 272 272 272 272 271 271
293 292 292 291 290 290 289 288 288 288 287 287 286 286 287 287 288 288 288 288 287 287 287 287 286 286 285 285 285 285 285 285 285 285 284 284 284 284 284 284 283 283 282 282 281 280 280 280 280 280 279 279 278 277 276 275 275 276 275 275 275 275 276 276 277 277 277 277 277 277 276 276 275 274 274 273 272 272 272 272 272 272 272 272 271
291 290 291 290 290 290 289 288 288 287 287 286 286 285 285 286 286 287 287 287 287 287 286 286 286 285 285 285 284 284 284 284 284 284 284 284 283 284 284 284 283 283 282 282 281 280 280 280 279 279 278 278 278 277 277 276 276 277 276 275 275 276 276 276 277 277 277 277 277 276 276 276 275 274 273 272 272 271 271 271 272 272 272 272 271
289 289 289 289 288 288 287 287 286 286 286 285 285 285 284 285 285 286 286 286 286 285 285 285 285 284 284 284 284 283 283 283 283 283 283 282 282 283 283 283 283 283 283 282 281 280 280 279 279 279 279 278 278 277 277 277 277 277 277 277 277 277 276 275 275 276 276 276 276 276 275 275 275 273 272 271 271 271 271 271 271 272 272 271 271
288 287 287 286 286 285 285 285 285 284 284 284 284 284 284 284 284 284 284 284 285 285 285 285 284 284 284 284 283 283 282 282 282 282 281 281 282 282 281 282 282 283 283 283 281 280 280 279 279 279 278 278 278 277 277 277 277 277 277 277 276 276 275 275 275 275 275 275 275 275 274 274 274 273 272 271 271 270 270 270 271 272 272 271 271
287 286 286 286 285 284 284 284 284 284 283 283 283 283 283 283 283 282 283 283 283 283 283 283 284 283 283 283 283 283 282 282 281 281 281 281 281 281 281 281 282 283 283 283 282 281 280 279 279 279 278 278 278 277 277 277 277 277 278 277 276 275 275 275 275 275 274 274 274 274 274 273 273 272 272 271 271 270 270 270 271 271 271 271 270
286 286 286 286 285 284 284 283 283 283 282 282 282 282 282 282 281 282 282 282 282 282 282 282 282 282 282 282 282 282 281 281 281 281 281 281 280 281 281 282 282 282 282 283 283 282 281 280 280 279 279 278 278 277 277 277 278 279 280 279 277 276 275 275 275 274 274 274 274 273 272 272 272 271 271 271 270 270 270 270 271 271 271 270 270
286 285 284 285 284 284 283 284 284 283 283 283 282 281 281 281 281 280 281 281 281 281 281 281 281 281 281 281 281 281 281 281 281 281 281 281 281 281 281 281 282 282 282 282 282 282 281 280 280 280 279 278 278 278 277 277 278 279 279 279 278 277 276 275 275 275 274 274 273 272 272 271 271 271 271 271 270 270 270 270 270 270 271 270 269
284 283 283 283 283 282 282 282 282 282 282 282 281 280 280 280 280 280 280 280 280 280 280 280 280 281 281 281 281 281 281 280 280 281 281 281 281 282 282 282 282 282 282 282 281 281 281 281 280 280 279 278 278 278 277 277 278 278 279 278 277 276 275 275 274 274 273 273 273 272 271 271 270 271 271 271 271 270 270 269 270 270 270 270 269
282 282 281 282 282 282 281 281 280 280 280 279 279 279 279 279 279 279 279 279 279 279 279 280 280 280 280 280 280 280 280 280 280 281 281 281 281 281 282 282 282 282 282 281 281 281 281 281 280 280 279 278 278 278 277 277 277 278 278 278 277 275 274 274 273 273 273 273 272 271 271 270 270 270 270 271 271 270 269 269 269 270 270 270 269
282 281 281 281 281 281 281 281 281 280 279 278 278 278 278 278 278 278 278 278 279 279 279 279 279 279 279 279 279 279 279 280 280 280 280 281 281 281 282 282 282 282 282 282 281 281 281 280 280 279 279 278 278 277 277 276 277 277 277 277 276 275 275 274 273 273 272 272 272 271 270 270 270 270 270 270 270 270 269 269 269 269 269 269 269
282 281 281 281 281 280 280 279 278 278 278 278 278 277 277 277 277 277 277 277 277 277 278 278 278 278 278 278 278 278 278 278 279 279 280 280 281 281 281 282 282 282 282 282 281 281 281 280 280 279 279 278 278 277 276 276 275 275 275 275 275 275 274 273 272 272 272 272 271 271 270 270 270 269 269 270 270 269 269 268 268 269 269 269 269
281 281 280 280 280 280 278 278 277 278 278 277 276 276 275 276 276 276 276 276 276 276 276 276 277 277 277 277 277 277 277 277 277 278 278 279 279 280 281 281 281 281 281 281 281 281 280 280 279 279 278 278 277 277 276 276 275 274 274 274 274 273 273 272 272 272 272 272 271 270 270 270 269 269 269 269 269 269 268 268 268 268 268 268 268
280 280 280 279 279 279 278 278 278 277 276 275 275 275 275 275 275 274 275 275 275 275 275 275 275 276 276 276 276 276 276 276 277 277 277 277 278 278 279 279 280 280 280 280 280 280 280 279 279 278 278 277 277 277 276 276 276 275 274 274 274 273 273 272 272 272 272 271 271 270 270 269 269 268 268 268 268 268 268 268 267 267 267 268 268
279 279 278 278 278 278 277 277 277 276 275 275 275 275 275 274 274 274 274 274 274 274 274 274 274 275 275 275 275 275 275 275 276 276 276 276 277 277 277 277 278 278 278 278 278 278 278 278 278 278 277 277 277 276 276 276 275 275 274 274 273 273 272 272 272 273 273 272 271 270 269 269 268 268 268 268 268 268 268 268 267 267 267 267 267
278 277 277 277 277 277 277 276 275 275 275 275 274 274 273 273 273 273 273 273 273 273 273 273 273 273 273 274 274 274 274 274 275 275 275 275 275 275 276 276 276 276 276 277 277 277 277 277 277 277 277 276 276 275 275 275 275 274 274 274 273 273 273 273 273 274 273 272 271 271 270 269 268 268 268 268 268 268 268 268 267 267 266 266 266
276 276 276 276 275 275 275 274 274 274 274 274 273 272 272 272 272 272 272 272 272 272 272 272 272 272 272 273 273 273 273 273 273 274 274 274 274 274 274 274 274 275 275 275 275 275 275 275 276 276 275 275 275 274 274 274 274 274 273 273 272 272 272 273 273 273 273 273 272 271 270 269 268 268 268 267 267 267 267 267 267 266 266 266 266
275 275 274 274 273 273 273 272 272 272 272 272 271 271 270 270 270 271 271 271 271 271 271 271 271 271 271 272 272 272 272 272 272 272 272 272 272 272 273 273 273 273 273 273 273 273 274 274 274 274 274 274 274 273 273 273 273 273 272 272 271 270 270 271 272 272 273 272 272 271 270 269 268 268 267 267 266 266 266 266 266 266 266 265 265
273 272 272 271 271 271 271 270 270 270 270 270 269 269 269 269 269 270 270 270 270 270 270 270 270 270 270 271 271 271 271 271 271 271 271 271 271 271 271 271 271 271 272 272 272 272 272 272 272 272 272 272 273 272 272 272 272 271 271 271 270 269 269 269 271 271 272 272 271 270 269 269 268 267 267 266 266 266 266 265 265 265 265 265 265
271 270 270 270 270 270 269 269 268 268 268 268 268 268 268 268 268 268 269 269 269 269 269 269 269 269 269 269 269 269 269 269 270 270 270 270 270 270 270 270 270 270 270 270 270 270 270 270 270 271 271 271 271 271 271 271 270 270 270 270 269 268 268 269 270 271 271 271 270 269 269 268 267 267 266 266 266 265 265 265 265 264 264 264 264
269 269 269 269 268 268 268 267 267 267 267 267 267 267 267 267 267 267 267 267 267 267 267 267 267 267 267 267 268 268 268 268 268 268 268 268 268 269 269 269 269 269 269 269 269 269 269 269 269 269 269 270 270 270 270 270 269 269 269 269 268 268 268 268 269 270 270 270 269 269 268 268 267 266 266 265 265 264 264 264 264 264 264 264 264
268 268 268 267 267 267 267 266 266 266 266 266 266 265 265 265 266 265 265 266 266 265 266 266 266 266 266 266 266 266 266 267 267 267 267 267 267 267 267 268 268 268 268 268 268 267 268 268 268 268 268 268 269 269 268 268 268 268 268 268 267 267 267 268 269 269 270 269 269 269 268 268 267 266 265 265 264 264 264 263 263 263 263 263 263
Wind_Speed
14 16 16 14 17 21 22 23 23 25 26 26 27 27 27 27 27 28 28 28 28 28 28 28 29 30 31 32 34 34 33 33 32 30 30 31 31 29 28 27 26 25 25 25 25 24 25 26 24 21 20 19 18 17 16 14 13 12 11 9 8 7 6 6 5 7 7 7 9 10 10 11 12 11 12 14 15 16 18 18 19 21 22 22 21
15 16 14 13 14 16 18 21 22 23 24 26 27 28 28 28 28 29 29 30 30 29 29 29 29 30 31 33 35 35 34 34 34 32 32 32 29 27 26 26 26 26 26 25 25 25 26 26 24 22 20 19 18 17 15 14 13 12 11 9 7 6 5 6 5 5 7 8 9 10 11 11 11 11 12 14 16 17 17 18 20 22 23 23 22
14 15 16 16 16 14 15 18 21 23 24 25 27 27 28 29 29 29 30 30 29 29 29 30 30 31 32 34 36 35 34 34 33 33 33 31 27 25 25 26 27 27 26 26 26 27 27 26 24 22 21 19 18 17 15 15 14 13 11 9 7 6 5 5 5 5 7 9 8 9 11 11 11 11 11 13 16 17 16 18 21 22 23 23 22
12 13 15 16 16 16 16 16 18 22 24 25 26 26 26 27 28 28 29 29 29 29 29 30 31 32 33 35 37 37 35 35 33 33 34 30 25 23 24 26 27 27 26 28 29 29 28 26 24 22 21 20 18 17 16 15 15 13 11 9 8 6 5 5 5 5 6 7 8 9 11 11 11 10 10 13 17 15 14 18 21 22 24 24 22
10 10 11 12 13 14 15 15 16 20 22 23 23 24 24 25 26 27 28 28 28 29 29 30 31 32 34 35 38 38 37 36 35 35 34 28 23 23 24 26 27 27 28 30 31 29 27 26 24 22 21 20 19 19 18 17 15 13 11 9 8 7 6 5 5 5 6 8 9 10 9 10 10 9 9 14 17 14 14 18 21 21 24 27 25
8 8 9 10 12 13 13 14 15 17 18 20 20 21 22 23 25 25 26 27 28 28 29 30 32 33 34 36 38 39 39 38 37 35 32 26 23 24 24 25 27 28 30 31 30 28 26 24 23 22 22 21 20 20 19 18 16 13 11 10 8 7 6 5 4 5 6 8 9 10 9 9 9 7 9 14 15 12 15 20 19 18 23 28 29
8 8 9 10 12 13 13 13 13 13 14 15 16 18 19 21 22 23 24 25 26 28 29 29 31 32 34 35 37 38 39 38 35 32 29 25 24 24 25 26 28 29 30 29 28 26 25 23 22 22 22 21 20 20 19 18 16 13 12 10 9 8 6 5 5 6 7 7 8 8 9 8 7 7 10 13 12 10 15 20 20 20 23 25 29
9 8 9 11 12 12 11 11 11 11 12 13 14 15 17 18 20 21 22 23 24 26 27 28 29 30 31 33 35 36 35 34 34 31 27 25 25 26 27 29 30 29 28 27 27 25 24 23 22 22 22 21 20 20 19 18 16 14 12 11 10 9 7 7 7 7 6 6 7 7 8 8 6 7 10 12 11 12 16 18 20 23 25 25 26
10 10 11 12 11 11 10 10 11 11 12 13 14 15 16 17 18 19 20 22 23 23 25 26 27 28 29 30 32 34 34 34 34 31 27 25 26 27 29 30 31 30 28 27 27 26 25 24 23 23 23 22 21 20 18 17 15 14 13 12 11 10 9 9 8 6 5 6 7 7 7 6 5 7 9 10 11 13 16 17 18 21 25 28 27
13 13 12 12 11 11 11 11 12 12 13 13 14 15 16 17 18 19 20 21 21 22 23 24 25 27 29 30 31 33 34 33 32 29 26 27 28 29 31 32 31 31 30 29 28 27 26 25 25 24 24 22 21 19 17 16 15 14 13 12 12 11 10 10 9 7 6 6 7 6 5 5 5 6 8 8 10 13 16 17 18 20 24 27 26
14 15 13 12 11 12 12 12 12 13 14 14 15 16 17 17 18 18 19 20 20 21 21 23 24 26 28 30 31 32 33 32 30 28 27 28 30 32 34 34 33 32 31 31 30 29 28 27 26 25 24 23 21 19 18 17 16 15 13 12 11 11 11 10 9 8 7 7 7 6 5 5 5 5 7 8 10 12 14 14 15 17 18 19 20
13 14 15 13 13 12 13 13 13 14 14 15 15 16 16 17 17 17 18 19 19 20 21 22 24 26 28 30 31 32 32 31 29 28 29 31 32 34 36 35 34 33 32 31 31 30 29 28 27 26 25 23 21 20 19 17 16 15 13 12 11 11 10 10 9 9 9 8 8 7 5 5 5 5 6 9 10 12 13 12 11 12 13 13 16
12 14 16 16 15 13 13 13 14 14 15 15 16 16 16 16 17 17 17 18 19 20 21 22 24 26 28 29 30 30 30 29 28 29 31 32 33 35 36 36 35 34 33 32 31 30 29 29 28 27 25 24 22 21 19 18 16 15 14 12 12 11 10 10 9 9 9 9 9 7 5 5 6 6 7 9 10 11 11 10 9 8 10 13 18
12 14 16 16 16 15 14 13 14 14 15 15 15 16 16 15 16 16 17 17 19 20 21 22 23 25 26 28 28 29 29 28 28 30 32 33 34 35 36 35 34 34 33 32 31 30 30 30 29 28 26 25 23 21 20 18 17 15 14 13 12 12 11 10 9 9 9 9 9 8 5 6 7 8 9 9 9 10 10 10 9 10 12 16 19
11 13 15 16 16 16 15 14 14 14 15 15 16 16 16 16 16 16 17 17 18 19 20 22 23 25 26 26 26 27 27 27 28 31 33 34 34 35 34 34 33 32 32 31 31 30 30 30 29 28 26 25 23 22 20 18 16 15 14 14 13 12 12 10 9 10 10 9 9 8 8 9 10 11 12 11 10 10 10 10 11 12 14 16 18
11 13 15 16 16 16 16 15 15 15 15 15 15 16 16 16 16 16 17 17 18 19 20 21 23 24 24 25 24 25 25 27 29 31 33 34 35 34 33 33 32 31 31 31 30 30 30 29 28 26 25 25 23 21 19 18 17 16 15 14 14 13 13 11 11 11 11 11 10 10 10 11 12 13 14 13 11 10 10 11 11 10 11 14 14
11 12 15 16 16 16 16 16 16 16 16 16 16 16 16 16 17 17 17 18 19 19 20 21 21 22 23 23 24 25 26 28 30 32 34 36 36 35 33 33 32 31 30 30 29 29 28 27 27 26 25 24 23 21 19 18 17 17 16 15 15 15 14 13 12 12 13 13 12 11 11 11 12 13 13 12 10 9 9 10 9 8 9 11 9
10 11 14 16 16 16 16 16 16 16 17 17 17 17 16 17 17 17 17 18 18 19 20 20 20 21 22 23 24 26 28 30 31 34 36 37 37 35 34 32 31 30 29 28 28 28 27 27 27 26 25 24 22 21 20 19 18 18 17 16 16 16 14 13 13 13 13 13 11 11 11 11 11 11 11 11 10 9 9 10 9 8 9 9 9
11 11 13 14 15 16 15 15 16 16 16 17 17 17 17 18 17 17 18 18 19 19 20 20 21 21 22 24 25 27 28 30 32 34 36 37 37 35 33 32 31 30 29 27 26 27 27 27 27 26 24 22 22 21 20 19 19 19 18 17 17 16 14 13 14 13 12 12 11 11 11 10 10 11 10 10 11 11 10 10 9 8 9 10 10
10 10 10 11 13 14 15 15 16 16 16 16 16 16 16 17 17 18 18 19 19 20 20 21 21 22 23 24 26 27 28 29 31 34 36 37 37 35 33 33 33 31 29 29 28 28 28 28 28 26 24 23 23 22 21 20 19 18 18 19 18 16 13 13 14 13 12 12 11 11 10 10 10 11 10 10 11 11 10 9 9 8 9 10 10
8 7 7 8 10 12 13 14 14 15 15 15 15 16 16 16 17 17 17 18 19 19 20 21 21 22 23 24 26 28 29 30 31 33 36 37 37 37 35 34 35 33 31 30 30 30 30 30 29 27 25 25 24 22 21 20 19 18 18 18 17 15 14 14 13 12 12 12 11 11 10 10 11 11 10 11 11 10 10 10 10 9 10 10 11
7 6 6 7 8 10 11 12 12 13 15 16 16 16 16 16 16 16 17 17 18 19 19 19 20 21 21 22 25 27 27 28 30 32 35 36 37 37 35 34 34 34 32 32 32 32 31 30 29 28 27 26 24 23 22 20 18 18 18 17 17 17 16 14 13 13 13 12 12 11 11 11 12 11 11 11 11 11 11 11 11 11 11 12 12
6 7 8 8 8 8 9 9 10 12 14 15 16 16 16 16 16 16 17 17 18 18 18 18 18 19 20 21 24 26 26 26 27 30 33 35 36 37 35 33 33 33 33 33 33 33 32 31 29 28 28 26 25 23 22 19 18 18 18 17 18 18 16 14 14 14 13 13 13 13 13 13 13 13 12 12 11 12 13 13 12 11 12 12 13
6 7 8 8 8 7 7 8 9 11 12 14 15 16 16 16 16 17 17 18 17 16 17 19 19 19 20 22 23 24 25 25 26 28 31 33 35 36 36 33 32 31 32 31 31 32 32 31 29 27 27 26 25 24 21 19 19 19 17 16 19 19 17 15 15 14 14 14 14 13 14 14 14 14 13 13 13 13 14 13 12 11 11 11 12
5 5 6 6 6 6 7 7 9 10 11 13 14 15 16 16 16 17 17 18 17 16 17 19 20 20 22 23 23 24 24 25 26 28 30 32 34 36 36 35 33 31 31 31 31 31 31 30 28 26 26 27 25 22 20 19 20 19 17 19 22 21 18 16 15 15 15 15 14 14 15 15 15 14 14 14 15 14 13 12 11 10 10 11 13
4 4 4 4 4 5 6 7 9 10 11 12 14 15 16 16 17 17 17 18 18 18 18 19 20 22 23 24 24 24 24 25 27 29 31 32 32 33 35 36 34 32 31 31 31 30 29 28 28 26 26 26 25 23 22 22 21 19 19 23 25 22 19 18 17 17 17 16 15 15 15 15 15 15 14 14 14 13 11 10 10 9 8 10 13
4 3 2 2 3 4 5 7 8 9 11 12 13 14 15 16 17 18 18 19 19 20 19 19 21 23 24 23 24 24 25 26 28 30 31 32 32 32 33 35 35 34 32 32 31 29 28 27 26 24 25 25 23 23 23 23 22 22 24 27 26 23 21 20 18 17 17 16 16 15 15 15 14 14 13 12 12 11 9 9 10 9 8 9 12
3 2 1 2 3 4 5 6 7 8 10 12 13 13 14 16 18 19 20 20 20 20 20 21 23 24 24 23 23 24 26 28 31 32 33 34 35 35 34 34 36 36 36 34 31 28 26 24 23 23 24 23 23 24 26 26 26 27 28 29 27 25 23 21 19 19 18 18 17 16 16 15 14 13 12 12 12 10 9 9 9 9 8 8 10
3 2 1 2 3 4 5 6 7 7 9 11 12 13 14 15 17 18 19 20 20 20 21 21 23 24 25 25 24 24 26 31 34 36 35 35 36 36 36 36 36 36 35 34 30 27 25 24 25 26 26 26 27 28 29 29 29 30 30 29 28 26 25 24 22 21 20 19 18 17 16 15 14 14 13 12 11 9 8 8 9 9 8 8 10
4 2 1 1 3 3 4 6 7 7 8 10 11 12 14 15 16 18 18 19 20 21 21 22 22 22 23 25 26 27 29 31 33 32 32 33 33 33 33 35 35 32 30 29 28 27 27 28 30 31 31 32 34 33 31 30 31 32 32 31 30 28 28 27 25 23 22 21 20 18 17 16 15 14 13 12 11 9 8 8 9 9 8 9 10
4 2 0 1 2 3 3 5 6 6 7 9 10 11 13 15 16 18 18 19 21 21 22 23 24 23 23 24 25 26 28 29 29 29 29 29 31 31 31 31 31 30 28 26 26 29 31 32 34 35 35 35 36 35 32 31 32 34 35 34 32 31 31 30 28 26 24 22 21 20 19 18 17 15 14 13 11 9 9 9 9 9 9 9 11
6 3 2 1 1 2 2 4 5 5 6 7 9 10 11 12 14 16 16 16 18 20 22 24 25 25 26 26 26 27 27 27 27 28 28 28 28 30 30 29 28 27 26 24 26 29 32 33 34 34 34 34 34 34 33 33 35 37 37 35 34 34 34 32 29 27 25 24 23 22 21 19 18 17 15 13 12 10 10 9 10 10 10 10 12
6 4 3 2 1 1 0 1 3 3 4 5 7 8 9 8 10 13 15 16 16 17 19 21 23 24 26 28 29 30 29 27 27 27 28 28 28 28 28 30 28 25 23 25 28 31 32 33 33 33 33 33 33 33 33 34 37 38 38 36 36 35 34 32 28 26 25 24 23 22 21 20 19 18 16 14 13 11 11 10 10 10 11 11 12
5 4 3 3 3 3 2 2 2 3 3 5 6 7 7 8 10 12 14 15 16 17 17 17 18 20 23 25 28 30 30 30 29 27 26 27 27 27 27 28 28 26 26 30 33 33 32 32 32 31 31 32 32 32 32 33 34 36 37 36 34 32 31 30 28 27 26 25 24 23 22 21 20 19 17 15 13 12 11 11 11 11 11 11 11
5 4 4 4 4 4 3 2 3 3 3 4 5 6 7 8 9 10 11 12 14 16 17 17 17 18 19 21 22 25 27 28 29 29 27 26 26 25 24 25 26 27 30 32 34 34 34 33 33 32 32 32 32 32 32 32 33 35 36 35 33 31 30 29 29 29 28 26 25 24 23 22 21 19 17 16 15 13 13 12 12 12 12 11 11
5 4 4 3 3 3 2 2 2 3 2 3 4 6 7 8 9 8 9 10 12 14 16 16 17 17 18 19 19 20 21 24 26 27 28 27 26 24 24 26 26 26 29 32 33 34 35 35 35 34 33 33 33 33 33 34 35 36 36 35 34 33 32 32 31 31 29 27 26 25 24 23 22 20 17 16 16 15 15 14 13 13 12 12 12
5 4 3 3 2 2 2 1 1 2 2 4 5 6 7 8 9 9 9 10 11 12 14 15 15 16 17 18 17 17 18 20 21 23 23 23 23 24 27 28 27 27 28 30 32 33 34 36 36 36 34 34 34 35 35 36 37 37 37 36 35 35 35 34 34 32 31 29 28 26 25 24 22 20 19 18 17 16 15 15 14 13 13 13 12
5 4 3 2 2 3 3 3 3 3 3 4 4 4 5 7 8 8 9 10 11 12 13 14 14 14 15 15 15 16 16 16 17 18 19 19 21 24 26 27 28 28 30 31 31 33 35 37 38 38 37 37 36 37 37 37 38 38 38 37 36 36 35 35 34 32 31 30 29 28 27 25 22 20 20 20 19 17 16 15 14 13 12 13 14
7 6 5 4 4 4 4 4 4 5 5 4 4 4 5 6 6 7 9 10 11 11 12 13 13 14 14 14 13 13 14 14 15 16 17 18 21 23 25 26 27 29 30 30 30 31 34 35 36 36 37 38 37 37 38 38 39 40 40 39 38 37 37 36 35 34 33 32 30 28 27 26 23 21 21 20 20 18 17 16 15 14 13 13 14
7 6 6 6 6 5 5 5 5 5 4 4 4 4 4 5 6 7 9 10 11 11 12 13 14 15 15 14 13 13 14 15 16 16 17 19 20 22 24 26 27 28 30 30 30 30 32 33 33 34 35 37 37 37 37 37 38 40 41 40 39 39 39 39 38 36 34 33 30 29 28 27 24 22 21 21 20 19 18 16 16 15 15 14 13
7 6 6 7 7 7 7 6 6 5 4 4 5 5 4 5 6 7 9 10 11 12 13 14 16 17 16 16 15 15 16 18 19 19 19 20 21 22 24 26 27 28 29 30 31 31 31 32 33 33 34 35 36 36 36 36 36 38 39 39 39 39 39 38 37 36 34 32 31 29 29 27 25 23 22 21 19 18 17 16 15 15 15 15 14
8 8 8 8 8 8 8 7 7 7 7 7 6 5 5 6 7 8 10 11 12 13 14 16 17 17 17 17 16 16 18 20 21 21 21 22 22 23 25 26 28 28 29 30 31 31 31 32 33 33 33 35 35 35 36 36 36 37 39 40 39 39 39 39 37 35 34 32 31 30 28 27 24 23 22 21 19 18 17 17 16 15 15 14 14
9 9 9 9 9 8 8 8 9 9 9 8 7 7 8 9 10 10 11 12 12 13 15 17 18 18 18 17 16 16 18 20 21 22 23 23 24 25 26 27 28 29 30 32 32 31 31 32 33 32 33 34 35 36 37 38 37 36 38 40 41 41 41 41 39 37 35 33 31 29 27 25 23 22 21 20 20 19 18 17 16 15 15 14 14
10 10 9 9 9 10 10 10 10 10 10 10 11 11 11 11 11 11 11 12 13 14 15 16 17 18 18 18 16 16 18 19 20 21 23 23 24 25 26 26 27 27 29 30 31 31 31 32 34 34 33 34 35 36 37 38 38 36 37 39 42 43 43 43 41 39 37 35 32 30 28 26 23 22 21 21 20 20 18 17 16 16 15 14 14
10 10 10 10 10 11 11 11 11 11 12 12 13 13 12 11 12 11 12 13 13 14 15 16 16 17 18 18 17 17 18 19 20 21 22 23 24 25 25 25 26 27 27 28 29 29 30 31 33 34 34 34 35 36 37 38 38 38 37 39 42 45 46 45 43 40 38 36 34 32 30 28 25 23 22 21 21 20 19 18 17 16 15 15 15
9 9 10 10 10 10 11 11 11 12 13 13 13 13 12 11 11 12 12 13 13 14 15 16 16 17 17 18 18 18 18 19 20 21 22 22 23 24 25 25 26 27 27 27 27 28 29 30 32 33 34 35 35 36 37 38 38 38 37 38 42 45 45 44 41 39 37 36 35 33 30 28 26 24 23 21 20 20 19 18 16 16 16 15 14
9 9 10 10 10 11 11 11 12 12 13 12 12 12 11 11 12 12 13 13 14 15 16 16 16 17 17 18 18 19 19 20 21 21 22 23 24 24 25 25 26 27 27 27 27 28 29 30 31 32 34 35 36 36 37 37 37 37 36 37 39 42 42 41 40 38 36 35 34 32 30 27 25 23 22 21 20 19 19 18 18 17 16 15 14
9 10 10 10 11 11 12 12 12 12 11 11 11 11 12 12 12 13 13 13 14 15 16 16 16 17 18 18 19 19 20 21 21 22 23 24 24 24 24 24 25 26 27 27 27 27 28 30 31 32 34 35 36 37 37 37 37 36 35 35 36 38 40 40 38 37 34 32 31 30 29 27 24 23 22 22 21 20 19 19 18 17 16 15 14
10 10 11 11 11 12 11 11 12 11 11 11 11 12 12 12 13 13 14 14 14 15 15 16 17 17 18 18 19 19 20 21 21 22 22 23 23 23 23 24 24 25 26 26 27 27 27 29 30 31 32 33 35 36 37 37 37 36 35 34 34 36 38 39 37 35 33 30 28 28 28 26 24 22 21 21 21 20 19 18 18 16 15 15 14
11 11 12 12 12 12 12 12 12 12 12 12 12 12 13 13 13 14 14 14 14 15 15 16 16 17 17 18 18 19 19 20 20 21 21 21 22 22 23 23 24 25 25 26 27 27 27 28 29 29 30 32 33 34 35 36 36 35 34 33 33 34 38 39 37 34 31 29 27 27 28 27 24 23 22 21 21 20 19 19 18 17 16 16 15
12 12 12 12 13 13 12 12 12 12 12 12 12 12 13 13 13 13 14 14 15 15 15 16 16 17 17 18 18 18 19 19 19 20 20 21 21 22 23 23 24 25 25 27 27 27 27 27 28 29 29 30 31 32 33 34 33 33 33 32 32 34 37 38 36 33 31 29 28 27 27 27 26 24 23 23 22 21 21 20 19 18 17 16 15
Wind_Direction
212 217 218 215 218 221 222 223 225 229 230 232 234 235 234 234 233 231 232 235 238 241 242 240 237 232 228 223 218 214 214 213 214 217 216 212 211 214 216 219 221 220 220 219 216 208 198 192 192 192 194 196 195 193 193 193 194 193 190 191 188 178 174 176 208 260 286 295 300 310 314 321 336 341 336 341 347 346 349 354 356 356 357 356 354
225 228 228 226 226 225 224 224 225 227 228 230 232 233 233 234 236 236 238 241 243 243 242 239 236 233 228 223 219 216 216 213 213 216 214 211 212 219 224 225 222 220 219 216 209 199 192 191 191 192 194 196 195 193 194 195 196 195 194 192 190 188 187 187 200 243 275 288 296 304 311 320 334 340 338 340 343 344 349 355 355 355 356 355 352
234 236 238 238 239 236 233 230 228 229 229 231 233 236 237 238 239 240 241 242 243 242 241 240 236 233 228 224 220 217 217 214 213 212 212 214 220 228 230 225 219 217 216 209 199 191 189 191 193 194 194 194 194 194 195 198 198 198 197 193 194 200 204 207 207 221 260 283 292 298 310 322 331 336 334 335 341 345 351 353 352 355 355 353 352
235 238 240 241 241 241 240 236 232 231 232 235 236 237 239 239 239 240 240 241 242 241 240 238 235 232 227 222 218 215 214 213 212 211 212 217 226 232 229 219 215 216 211 201 193 190 191 193 194 195 195 193 193 195 197 199 200 201 199 194 198 209 214 221 223 222 245 270 285 295 307 319 328 333 327 331 343 350 350 349 349 352 354 353 352
234 236 240 242 240 240 241 239 236 234 234 236 238 238 240 241 240 239 239 239 240 239 237 235 232 229 226 223 218 215 213 212 211 209 211 217 226 231 226 216 212 209 202 196 193 193 194 196 195 194 194 195 195 197 199 201 201 200 199 198 202 213 222 226 231 233 240 257 279 295 305 310 319 325 319 330 347 353 346 346 349 351 350 352 352
231 234 236 240 242 241 241 242 242 241 240 239 239 240 242 243 244 242 240 239 238 237 235 233 231 229 227 224 219 214 212 211 209 207 209 216 224 225 219 210 203 198 195 195 195 196 197 198 197 196 197 199 199 200 201 202 202 201 200 202 206 213 221 225 230 240 244 255 275 289 296 300 309 315 318 334 349 350 342 344 347 347 346 348 351
229 233 237 241 245 246 246 249 251 252 251 248 245 245 245 247 249 247 244 241 239 237 234 233 231 229 227 225 219 214 210 208 207 207 210 216 220 216 207 199 194 192 194 196 196 198 199 199 198 198 200 202 203 204 203 203 203 202 202 205 209 210 211 214 224 235 244 256 270 278 285 294 303 310 321 338 350 349 346 346 341 340 342 342 345
228 234 243 244 246 249 248 250 251 252 252 251 249 247 246 248 250 249 246 243 240 238 237 235 232 229 226 224 220 214 210 207 206 208 211 214 214 209 200 193 190 191 194 196 197 199 200 199 199 200 202 204 206 207 207 206 204 203 204 206 209 208 202 205 219 228 235 252 266 270 280 291 301 315 329 345 353 348 347 345 336 334 335 336 341
229 235 243 244 245 246 243 241 243 246 249 249 248 247 246 246 248 248 247 244 242 239 237 235 232 227 223 219 216 213 210 207 207 209 212 212 210 204 197 193 192 193 195 196 198 199 199 198 199 201 204 206 208 208 209 209 208 207 207 207 207 208 204 206 214 219 226 248 258 263 276 286 304 328 338 349 349 339 339 340 334 332 331 333 341
231 235 240 242 243 240 238 238 239 244 248 249 249 248 247 247 247 247 246 244 242 239 236 233 230 226 221 215 212 211 210 208 209 214 218 215 209 202 197 195 196 197 197 196 196 197 198 199 200 203 207 208 209 210 210 210 211 212 213 210 209 212 210 209 209 210 221 239 247 255 270 281 307 332 334 336 334 331 336 339 334 335 337 337 340
230 232 235 240 242 237 236 238 240 244 247 249 250 249 249 248 247 246 244 241 240 238 235 232 228 224 220 215 213 213 211 210 213 217 217 215 210 202 197 196 197 199 199 198 197 196 197 200 202 205 207 207 208 209 210 211 213 216 217 214 214 218 217 214 212 214 223 231 239 249 260 275 301 322 321 323 327 328 335 337 333 336 341 337 329
229 230 232 237 242 240 239 241 243 247 249 250 252 251 250 249 246 244 242 239 238 236 234 230 225 221 217 215 215 214 212 212 214 216 214 211 209 203 199 198 198 199 199 199 199 198 198 201 203 206 206 206 208 209 209 211 212 216 217 213 216 222 220 219 219 219 222 228 238 246 251 273 295 309 315 318 321 325 329 330 331 332 331 322 309
229 231 232 234 239 241 244 245 246 250 252 253 253 252 251 249 247 244 241 238 236 232 230 227 222 218 216 215 215 215 214 214 215 215 212 209 207 203 201 200 200 200 200 201 201 201 201 203 203 204 204 205 207 209 209 209 211 214 214 211 215 220 220 224 226 224 225 230 240 247 251 272 288 294 301 307 312 319 321 320 324 321 311 308 302
228 232 233 234 237 239 243 247 250 253 254 254 254 252 250 249 247 245 241 237 233 229 226 224 221 218 216 215 215 216 217 218 217 214 211 208 206 203 201 201 201 201 202 203 204 204 205 207 206 204 204 205 207 208 207 208 211 213 212 211 216 219 221 226 229 231 234 234 242 253 258 268 277 278 283 291 301 309 307 304 308 306 300 301 301
226 230 231 233 236 237 239 244 249 254 255 255 254 253 250 247 246 244 240 237 234 230 226 223 220 218 215 214 215 217 219 222 219 214 211 208 204 202 201 200 200 201 202 204 206 206 207 209 208 207 207 207 207 207 208 208 211 214 213 212 216 219 222 228 232 235 237 234 237 248 251 257 264 268 275 285 292 294 291 289 297 303 302 303 305
223 226 227 230 233 235 237 239 242 246 250 252 253 252 251 248 245 242 239 235 231 228 225 223 220 218 215 216 218 220 224 224 219 214 211 207 203 201 201 201 200 201 202 204 205 207 208 209 209 209 209 208 208 209 209 210 213 217 216 213 217 220 223 230 236 238 238 236 237 243 248 255 265 271 279 286 287 286 285 289 301 309 305 303 305
222 223 225 227 229 232 235 238 240 240 240 243 245 247 249 248 246 243 239 234 230 226 225 223 222 220 220 221 223 226 229 228 221 215 211 207 203 202 202 200 200 201 202 204 205 207 209 209 210 211 211 209 210 210 210 214 218 219 217 215 218 222 225 233 238 237 239 243 245 253 261 267 274 278 281 283 279 276 280 288 301 309 305 303 303
220 220 223 226 228 232 235 237 241 242 242 242 243 243 243 243 244 243 240 237 234 230 227 225 226 226 228 231 232 232 233 231 224 216 211 208 205 203 202 200 199 200 202 203 205 207 209 210 211 214 213 212 212 210 211 218 221 219 217 215 219 224 228 234 238 236 239 246 251 258 265 271 276 277 278 276 269 264 266 277 292 301 300 299 301
223 222 225 228 230 234 236 237 240 244 246 249 251 250 247 244 243 241 238 236 235 232 230 229 231 233 235 237 236 232 231 229 223 215 211 208 205 203 202 200 199 201 202 203 205 208 210 211 212 214 214 213 213 211 212 220 223 219 215 216 221 227 231 235 239 239 242 249 255 259 264 271 275 273 273 270 265 262 263 270 282 287 287 291 299
233 225 223 224 228 232 234 238 242 245 249 252 255 258 256 253 251 248 243 239 237 236 236 236 237 239 240 238 233 228 226 226 222 215 211 208 206 205 205 204 203 203 203 204 206 208 211 212 212 213 214 214 214 212 213 220 224 219 216 219 225 230 232 234 238 242 246 250 254 259 263 268 268 267 267 264 261 263 266 270 276 272 274 285 291
237 224 213 215 225 231 234 238 241 244 248 250 250 254 256 256 256 254 249 244 242 241 241 240 240 240 240 236 230 225 224 225 221 216 212 210 209 208 208 209 209 207 205 206 208 210 212 213 213 213 213 213 212 211 214 219 222 220 220 224 228 230 230 232 236 240 245 248 252 257 259 261 263 263 262 259 260 266 269 273 275 266 264 275 280
234 222 208 209 221 229 233 237 236 236 241 244 245 247 249 249 249 249 246 243 242 242 242 241 239 237 236 233 227 223 223 224 222 218 214 212 211 210 210 212 213 211 209 209 211 214 216 216 215 213 213 213 211 212 215 216 215 220 225 225 227 229 229 231 234 237 241 243 247 250 252 255 259 261 260 260 262 268 273 274 275 270 264 262 265
226 217 212 217 227 232 234 233 231 232 236 240 241 242 243 243 242 241 239 238 238 238 237 235 234 232 232 230 228 225 224 225 223 220 217 214 213 213 212 214 216 216 215 216 217 218 219 219 217 214 213 212 211 212 215 211 208 219 225 223 225 229 228 227 232 236 239 240 242 245 247 250 255 257 260 263 264 266 272 274 273 273 268 261 259
212 206 210 218 228 236 237 233 230 231 235 239 239 239 239 239 237 236 235 232 230 230 230 229 228 228 229 229 229 227 226 226 226 224 221 219 217 216 215 216 219 219 219 221 223 223 223 221 218 215 213 213 213 215 214 207 207 217 219 215 222 229 227 226 230 232 234 236 238 242 246 247 252 254 256 261 263 267 272 274 274 277 277 278 279
186 186 196 209 221 233 237 234 233 233 234 237 236 235 235 233 231 231 230 226 222 221 224 226 224 225 228 228 229 229 226 226 227 226 225 224 222 220 218 218 220 221 221 222 225 227 227 224 220 217 214 213 213 212 207 203 209 217 215 214 223 229 227 225 228 228 230 233 235 241 245 247 250 253 256 260 264 270 275 275 278 285 288 289 289
158 163 179 198 213 230 235 235 236 234 232 233 234 236 236 232 230 230 227 223 221 222 224 226 225 227 229 230 229 229 227 226 228 229 229 227 225 224 223 222 222 222 223 224 226 228 227 223 220 216 211 209 209 207 204 205 210 212 212 218 226 230 227 225 225 225 229 232 233 238 243 247 250 254 259 263 267 270 272 272 277 282 280 282 284
137 147 170 208 227 236 237 236 239 237 233 230 231 234 237 234 231 230 226 224 225 226 226 228 228 228 230 231 231 231 229 228 228 229 229 228 226 226 225 224 222 222 223 225 225 224 223 220 216 212 208 207 208 208 206 208 209 209 213 221 227 230 229 227 226 227 230 231 233 237 241 246 252 255 258 262 264 265 262 261 268 274 272 277 284
132 136 162 236 250 250 242 240 244 245 241 236 231 232 238 237 233 233 232 231 229 228 228 230 231 231 231 231 232 231 231 230 231 231 230 230 228 227 225 223 222 222 222 223 222 219 217 213 208 205 204 202 203 205 208 209 211 214 218 224 227 228 227 227 226 227 229 230 232 236 238 242 249 253 254 256 258 258 252 250 259 267 271 273 278
133 134 167 250 265 264 254 252 251 248 252 252 243 239 244 244 242 243 245 244 240 238 238 240 241 241 239 237 235 233 233 237 240 239 236 234 233 231 228 226 225 223 223 224 220 213 208 205 201 200 201 199 201 207 210 211 213 217 221 225 226 226 225 225 226 226 227 228 229 231 233 236 242 246 248 251 254 250 243 245 253 260 264 268 269
129 131 167 263 274 270 265 267 264 258 262 268 264 260 262 260 256 255 256 256 254 251 249 250 251 252 251 249 246 244 244 248 250 247 242 239 238 238 235 233 230 227 226 225 220 211 206 204 204 204 204 204 206 209 211 211 213 217 221 223 224 225 225 226 225 224 224 226 227 228 230 233 235 237 237 241 245 242 236 238 245 251 255 260 263
121 115 148 249 276 272 267 277 282 279 277 282 285 285 286 284 280 274 269 267 266 263 260 258 257 257 257 257 257 256 255 255 255 254 251 247 243 242 241 238 235 232 230 227 220 215 212 210 210 210 209 210 211 213 214 213 214 217 219 221 223 225 226 225 224 222 222 222 223 225 227 228 230 230 229 230 234 235 233 232 234 240 244 247 254
128 134 160 189 259 262 255 271 287 292 291 293 297 297 299 302 302 300 296 288 281 275 272 268 265 262 261 260 261 262 261 260 258 259 259 256 252 248 244 241 237 236 233 228 224 223 221 218 217 216 214 215 217 218 218 218 219 220 220 221 223 226 227 226 225 223 222 221 221 222 223 224 225 226 225 223 223 225 227 226 224 229 238 243 248
139 140 140 129 109 93 7 293 304 309 308 308 308 306 305 307 309 313 316 314 307 298 289 282 277 272 269 266 264 263 264 264 264 263 262 261 259 256 251 246 241 235 228 225 226 228 227 225 225 224 222 221 223 222 222 224 225 224 223 223 226 229 229 227 225 224 223 223 223 223 223 222 222 222 221 219 219 219 218 218 219 224 233 240 245
142 139 128 115 102 86 66 36 11 355 336 328 323 317 313 311 311 313 315 316 317 317 313 306 298 289 281 276 272 269 267 266 265 265 266 264 263 262 259 253 244 235 228 227 229 230 230 229 230 230 229 228 228 227 227 228 228 226 224 225 228 231 230 227 225 224 223 224 224 224 224 223 220 219 218 216 215 216 216 216 217 221 226 233 240
137 131 122 114 105 96 85 54 26 13 358 345 336 327 319 315 314 314 313 310 310 310 311 313 311 304 297 290 284 278 274 270 267 266 265 264 264 263 257 248 239 232 230 231 232 233 234 233 234 235 235 234 234 232 231 231 230 228 227 227 228 229 229 228 226 225 224 223 223 224 224 223 220 219 218 216 214 213 214 214 215 219 224 229 237
122 112 105 106 108 111 107 67 28 12 356 340 330 324 321 318 314 310 304 301 298 298 300 304 305 303 300 297 293 287 280 274 271 269 266 264 263 255 243 236 234 233 232 233 235 237 238 237 238 239 239 239 239 238 236 235 235 233 232 232 231 230 229 228 227 226 224 223 223 224 223 222 221 218 215 216 217 217 216 215 214 218 225 229 234
119 116 115 117 118 119 113 75 28 349 329 326 325 325 323 318 313 306 296 290 289 289 293 298 301 299 298 297 296 294 288 281 276 271 267 264 259 249 240 238 239 238 237 237 237 238 240 240 239 241 242 242 242 243 241 241 240 237 234 234 233 232 230 229 229 228 226 224 224 223 222 222 222 219 216 216 218 220 221 219 216 220 228 232 235
96 93 92 89 85 84 75 48 28 13 0 350 341 336 329 319 311 300 288 286 287 286 289 294 295 292 293 296 298 298 296 289 278 269 261 255 248 242 241 242 243 242 243 244 241 240 242 243 241 241 242 242 243 244 244 243 241 238 235 234 234 231 229 228 228 227 226 225 224 223 222 222 222 220 218 218 219 219 220 219 216 219 226 229 234
66 56 47 42 43 49 48 40 30 21 14 7 354 341 332 321 307 293 287 288 290 289 291 294 291 288 291 295 295 296 295 288 276 267 262 254 247 243 243 244 245 246 246 248 247 245 245 246 245 243 242 243 244 245 245 244 242 239 236 234 231 228 226 226 225 224 224 224 222 222 222 223 222 221 219 220 221 220 219 217 215 216 222 228 233
54 42 31 26 24 23 21 24 26 21 14 3 348 338 328 309 292 286 287 290 290 290 292 291 289 290 294 294 291 289 288 283 276 272 268 262 255 251 248 247 248 249 249 250 251 250 249 249 249 246 245 245 246 246 247 247 244 240 236 233 230 229 227 227 225 223 222 222 221 221 221 222 223 222 219 220 222 222 220 219 218 218 222 229 234
48 38 27 21 17 15 16 19 18 9 357 345 336 328 313 296 288 287 288 290 291 292 293 291 290 292 295 294 289 284 281 279 276 273 270 266 262 258 255 252 252 253 253 253 254 254 253 252 251 249 248 248 247 248 250 249 246 241 236 234 232 230 228 227 225 223 222 221 221 221 222 222 222 221 220 220 222 221 219 219 218 219 223 229 234
40 34 26 18 12 11 10 8 358 349 345 343 339 329 310 299 297 296 294 294 294 293 293 292 293 295 295 293 290 285 279 276 274 272 270 268 266 264 263 261 259 258 259 260 260 259 256 255 253 252 251 250 250 250 251 251 249 244 239 236 234 230 228 227 225 223 222 222 222 222 222 222 222 222 221 220 219 218 219 219 219 219 222 226 230
31 26 20 13 7 4 1 356 350 346 340 332 326 321 314 310 308 304 300 297 294 292 292 292 294 296 296 294 292 287 280 276 274 273 272 271 269 268 268 268 267 266 266 267 266 262 259 258 258 256 255 255 254 254 254 255 254 250 244 240 237 233 230 228 225 223 222 221 221 221 220 220 221 221 219 217 216 217 218 219 218 217 219 223 226
18 14 9 3 360 357 355 351 345 338 329 325 326 327 325 321 316 309 303 299 295 292 291 291 293 296 297 296 294 289 282 278 276 276 275 274 273 272 273 273 273 274 273 272 268 265 262 261 261 261 260 260 259 259 260 260 260 256 252 247 241 235 231 228 226 225 223 221 220 219 218 218 220 219 217 217 218 218 218 218 218 217 217 220 223
3 359 356 352 350 347 345 341 335 330 328 330 332 331 327 321 314 307 301 299 297 295 294 293 293 294 295 294 292 289 283 281 280 278 277 277 277 276 276 276 277 278 279 276 272 269 266 265 264 264 263 263 263 263 264 265 264 262 259 253 245 239 236 233 231 229 227 223 221 220 219 219 220 219 219 220 220 219 219 220 220 218 217 218 222
351 348 346 343 340 336 333 330 328 327 329 330 328 325 320 315 309 304 299 296 296 295 295 295 294 294 293 292 291 289 286 285 284 282 281 281 281 281 281 279 278 279 279 277 274 273 271 269 267 266 265 265 266 266 266 268 268 266 262 257 250 244 241 238 234 230 228 225 223 221 220 221 221 221 221 222 222 221 221 221 220 219 218 220 224
345 343 339 335 332 329 329 329 329 329 329 327 323 319 314 308 306 303 299 297 297 297 296 296 295 294 293 292 291 291 289 288 287 286 285 285 285 285 285 283 281 280 280 278 277 276 275 272 270 268 267 266 267 267 267 269 270 268 264 259 252 244 238 234 232 230 229 227 224 221 220 221 222 222 222 222 222 222 221 220 221 222 222 222 224
343 340 336 333 332 332 333 333 332 330 328 324 318 313 309 306 305 303 301 299 299 298 296 295 295 294 293 293 292 292 291 290 289 288 287 287 287 287 287 285 284 283 282 281 280 279 277 275 273 272 271 269 268 268 268 268 269 267 264 260 253 243 235 231 231 230 229 227 224 221 220 221 221 222 223 223 223 223 223 223 224 225 225 225 224
343 340 337 336 335 334 332 330 327 324 321 316 312 310 309 305 303 303 302 300 298 298 297 295 295 295 295 294 293 293 293 291 290 289 289 289 290 290 289 288 287 285 284 283 283 282 281 279 277 276 275 273 271 270 269 268 268 266 263 260 255 243 233 229 229 229 227 226 222 219 218 220 221 222 224 226 227 227 226 226 226 225 223 224 223
345 343 340 337 335 332 328 325 322 320 318 314 310 309 308 306 304 304 304 301 299 299 298 296 297 297 296 295 295 295 295 294 292 292 293 293 293 294 293 292 290 288 286 285 286 287 286 283 281 280 279 277 276 273 271 269 268 266 263 260 254 243 232 228 227 226 224 223 220 218 219 220 221 222 223 226 228 228 226 226 227 227 227 228 228
344 342 339 336 332 329 326 323 322 321 319 316 311 308 306 305 303 303 302 299 299 300 299 298 298 298 297 297 296 296 296 296 296 296 296 297 297 298 297 296 295 293 291 290 291 291 290 288 285 283 282 281 280 277 274 271 268 266 263 259 252 241 231 226 224 223 222 221 220 220 221 221 222 223 224 225 227 228 228 229 231 232 233 234 234